Location: Korokoko
(41.0678°S, 176.0894°E)
Time: 20:18:26
(UTC+00:00)

Daily predictions for brighter satellites

Satellite Brightness Start Highest point End
(mag) Time Altitude Azimuth Time Altitude Azimuth Time Altitude Azimuth
USA 59 Rocket 3.0 13:42:12 40° S 13:42:12 40° S 13:49:13 10° SSE
BREEZE-M DEB (TANK) 4.4 14:59:57 64° SSE 14:59:57 64° SSE 15:04:15 10° SE
H-2A R/B 4.4 15:16:08 16° S 15:16:08 16° S 15:17:07 10° S
NOSS 3-4 (A) 4.3 15:13:33 66° S 15:13:33 66° S 15:20:45 10° SSE
NOSS 3-4 (C) 4.3 15:13:37 66° S 15:13:37 66° S 15:20:50 10° SSE
USA 267 3.5 15:14:31 10° SE 15:20:03 65° SE 15:20:03 65° SE
USA 59 Rocket 3.5 15:28:33 21° SW 15:31:55 24° SSW 15:39:52 10° SSE
Cosmos 2227 Rocket 4.1 15:28:51 10° S 15:33:41 27° SE 15:38:26 10° ENE
SL-16 R/B 3.5 15:30:41 10° SSE 15:36:34 43° E 15:39:36 26° NNE
BREEZE-M DEB (TANK) 4.0 15:39:13 59° SSE 15:39:13 59° SSE 15:50:16 10° ENE
Cosmos 2297 Rocket 2.6 15:36:45 10° SSW 15:42:25 59° ESE 15:47:59 10° NE
Cosmos 2360 4.5 15:43:44 65° ESE 15:43:44 65° ESE 15:48:56 10° SSE
RESURS DK-1 4.2 15:51:59 29° SE 15:51:59 29° SE 15:54:07 10° SSE
USA 234 3.8 15:47:18 10° ENE 15:53:39 54° SSE 15:57:56 22° SW
SL-24 R/B - RUBIN 2 4.2 16:07:04 50° ENE 16:07:04 50° ENE 16:10:58 10° SE
Cosmos 1959 Rocket 4.5 16:04:31 42° N 16:06:52 88° ENE 16:13:21 10° S
SL-4 R/B 3.8 16:12:50 21° ENE 16:12:50 21° ENE 16:14:06 10° ENE
USA 281 3.4 16:07:02 10° SSE 16:13:40 71° ENE 16:18:04 23° NNW
Cosmos 1697 Rocket 2.7 16:14:41 52° NNW 16:16:07 84° ENE 16:21:52 10° SSE
CBERS-1 3.9 16:22:51 64° WNW 16:23:08 66° WNW 16:28:19 10° SSW
Meteor 2-13 Rocket 4.4 16:17:49 10° S 16:24:05 88° ESE 16:30:17 10° N
SL-8 Rocket 4.1 16:24:35 50° WNW 16:25:18 53° WSW 16:31:31 10° S
UNK 3.8 16:22:10 10° SSE 16:26:50 80° ENE 16:28:49 34° N
Cosmos 2058 Rocket 3.4 16:23:00 10° S 16:27:24 66° E 16:31:45 10° NNE
Cosmos 44 3.3 16:34:56 23° SW 16:38:14 74° WNW 16:43:35 10° NNE
Cosmos 1626 Rocket 4.3 16:35:14 10° N 16:39:27 52° E 16:43:43 10° SSE
Cosmos 1992 Rocket 4.0 16:36:42 20° NNW 16:40:25 83° ENE 16:45:44 10° SSE
BlueWalker 3 3.7 16:42:51 20° SSW 16:42:55 20° SSW 16:45:48 10° SSE
ARGOS 3.3 16:38:31 10° N 16:43:45 50° W 16:49:06 10° SSW
NOSS 2-3 (E) 4.5 16:36:06 10° SW 16:43:58 78° WNW 16:49:36 10° NNE
Cosmos 1933 4.4 16:46:44 10° S 16:50:35 45° ESE 16:54:23 10° NNE
Cosmos 2366 rocket 4.5 16:51:04 31° WNW 16:52:50 37° WSW 16:58:34 10° S
Cosmos 1515 3.3 16:51:56 10° S 16:55:26 85° W 16:58:52 10° N
Alouette 2 Rocket 3.7 16:53:09 10° NNW 16:58:53 80° WSW 17:02:58 10° S
Cosmos 2058 3.7 17:02:01 30° WSW 17:02:01 30° WSW 17:05:28 10° SSW
Cosmos 1666 3.1 16:58:39 10° N 17:01:56 53° E 17:05:16 10° SSE
Cosmos-2242 3.2 16:57:45 10° S 17:02:02 72° E 17:06:14 10° NNE
Cosmos 1238 Rocket 2.8 16:58:41 10° S 17:02:20 82° E 17:06:34 10° N
Hubble Space Telescope 2.9 17:02:10 12° NNW 17:03:08 13° N 17:05:03 10° NNE
Cosmos 1500 3.0 16:59:50 10° N 17:03:10 75° E 17:06:34 10° SSE
USA 267 4.1 16:57:50 10° SE 17:03:38 35° SSW 17:07:24 20° WSW
GP-B 3.4 16:59:45 10° S 17:04:15 68° E 17:08:39 10° N
Cosmos 1758 Rocket 3.8 17:01:03 10° N 17:05:21 70° E 17:09:43 10° SSE
ERS-1 4.5 17:04:41 10° N 17:09:52 70° WNW 17:15:07 10° SSW
Cosmos 1782 2.6 17:07:47 10° SSW 17:11:36 61° W 17:15:20 10° N
Cosmos 1727 Rocket 4.1 17:06:09 10° SSW 17:12:24 55° W 17:18:33 10° NNW
ARIANE 5 R/B 2.5 17:07:43 10° N 17:12:38 55° W 17:17:36 10° SSW
Cosmos 1980 Rocket 2.1 17:08:12 10° NNW 17:13:50 72° WSW 17:19:34 10° SSE
IRS-1C 4.3 17:10:52 10° N 17:16:02 50° W 17:21:18 10° SSW
Meteor 2-3 Rocket 3.7 17:10:50 10° NNW 17:16:38 76° W 17:22:27 10° S
USA 276 0.9 17:16:36 66° WNW 17:16:50 85° SW 17:19:00 10° SE
Cosmos 2227 Rocket 2.4 17:12:28 10° SW 17:17:55 47° WNW 17:23:18 10° N
Cosmos 2263 Rocket 2.5 17:12:29 10° SSW 17:18:07 72° ESE 17:23:41 10° NNE
SL-16 R/B 3.3 17:14:33 10° S 17:19:57 32° WSW 17:24:42 13° WNW
SL-12 R/B(2) 4.2 17:12:16 10° SW 17:20:09 52° WNW 17:27:12 10° N
Meteor 2-2 Rocket 4.2 17:17:06 10° SSW 17:22:51 78° W 17:28:37 10° N
Cosmos 2297 Rocket 3.4 17:22:44 13° WSW 17:25:53 19° W 17:29:47 10° NW
USA 59 Rocket 3.8 17:19:01 10° SW 17:26:15 20° S 17:32:52 10° SE
Cosmos 1378 3.5 17:24:01 10° SSW 17:26:50 28° W 17:29:34 10° NNW
RESURS DK-1 4.2 17:27:32 14° WSW 17:28:09 14° SW 17:30:20 10° SSW
IRS-P3 4.3 17:22:59 10° N 17:28:11 51° W 17:33:28 10° SSW
SJ-6F 4.4 17:24:51 10° N 17:29:00 74° W 17:33:12 10° SSW
Cosmos 1340 Rocket 3.5 17:26:54 10° S 17:30:48 56° ESE 17:34:40 10° NNE
SJ-12 4.2 17:30:42 10° N 17:34:26 41° W 17:38:16 10° SSW
Cosmos 2123 Rocket 4.0 17:28:20 10° S 17:34:40 78° W 17:40:58 10° N
DMSP B5D2-2 4.5 17:30:03 10° S 17:34:58 41° WSW 17:39:51 10° NW
USA 234 3.6 17:30:23 10° NNE 17:36:40 48° NW 17:43:00 10° WSW
Meteor 2-19 Rocket 4.4 17:33:21 10° SSW 17:39:36 75° W 17:45:44 10° N
OAO 2 Rocket 4.4 17:36:00 10° WNW 17:40:55 38° N 17:45:49 10° ENE
Cosmos 1934 Rocket 4.1 17:36:38 10° NNW 17:42:58 64° W 17:49:19 10° S
Okean 1-7 Rocket 3.7 17:38:49 10° NNW 17:43:08 55° W 17:47:31 10° S
Cosmos 1825 Rocket 3.8 17:43:02 10° N 17:47:23 76° E 17:51:48 10° S
SL-4 R/B 3.6 17:47:30 10° WNW 17:48:51 13° NW 17:50:23 10° NNW
SeaSat 1 2.8 17:45:38 10° SSE 17:50:36 70° ENE 17:55:30 10° NNW
Cosmos 2221 3.0 17:47:09 10° S 17:51:27 67° E 17:55:43 10° NNE
ATLAS 2AS CENTAUR R/B 2.8 17:46:16 10° NNW 17:53:02 89° SW 18:00:09 10° SE
Cosmos 332 Rocket 4.0 17:50:02 10° SSW 17:54:58 77° ESE 17:59:48 10° NNE
Cosmos 2151 3.5 17:51:57 10° N 17:56:08 65° E 18:00:23 10° SSE
USA 281 4.3 17:52:25 10° S 17:57:34 25° SW 18:02:41 10° WNW
Cosmos 2219 3.6 17:54:45 10° SW 18:00:01 41° WNW 18:05:15 10° N
Cosmos 1697 Rocket 4.3 17:57:15 10° W 18:00:49 17° SW 18:04:24 10° S
